Hourly Weather Golaczow

Today, 15 May, Saturday

Time Temperature Precipitation Wind Pressure Humidity
00:00 +6°C° 0 mm 1 mps 703 mmHg 93%
01:00 +6°C° 0 mm 1 mps 703 mmHg 94%
02:00 +6°C° 0 mm 1 mps 703 mmHg 95%
03:00 +6°C° 0 mm 1 mps 703 mmHg 95%
04:00 +5°C° 0 mm 1 mps 703 mmHg 96%
05:00 +7°C° 0 mm 1 mps 704 mmHg 92%
06:00 +8°C° 0 mm 2 mps 704 mmHg 88%
07:00 +9°C° 0 mm 2 mps 704 mmHg 85%
08:00 +12°C° 0.2 mm 2 mps 704 mmHg 79%
09:00 +13°C° 0.2 mm 2 mps 704 mmHg 73%
10:00 +13°C° 0.2 mm 3 mps 704 mmHg 67%
11:00 +13°C° 0.3 mm 3 mps 704 mmHg 65%
12:00 +14°C° 0.3 mm 3 mps 704 mmHg 64%
13:00 +14°C° 0.3 mm 4 mps 703 mmHg 63%
14:00 +13°C° 0.3 mm 3 mps 703 mmHg 70%
15:00 +13°C° 0.3 mm 2 mps 703 mmHg 78%
16:00 +10°C° 0.3 mm 2 mps 703 mmHg 85%
17:00 +11°C° 0.2 mm 1 mps 703 mmHg 86%
18:00 +11°C° 0.2 mm 1 mps 702 mmHg 88%
19:00 +10°C° 0.2 mm 1 mps 702 mmHg 90%
20:00 +10°C° 0.5 mm 1 mps 702 mmHg 91%
21:00 +9°C° 0.5 mm 1 mps 702 mmHg 93%
22:00 +9°C° 0.5 mm 1 mps 702 mmHg 95%
23:00 +8°C° 0.2 mm 1 mps 701 mmHg 95%

Tomorrow, 16 May, Sunday

Time Temperature Precipitation Wind Pressure Humidity
00:00 +8°C° 0.2 mm 1 mps 701 mmHg 96%
01:00 +7°C° 0.2 mm 1 mps 701 mmHg 96%
02:00 +7°C° 0 mm 1 mps 701 mmHg 96%
03:00 +7°C° 0 mm 1 mps 701 mmHg 97%
04:00 +6°C° 0 mm 2 mps 701 mmHg 98%
05:00 +7°C° 0 mm 2 mps 702 mmHg 95%
06:00 +7°C° 0 mm 2 mps 702 mmHg 92%
07:00 +8°C° 0 mm 2 mps 702 mmHg 89%
08:00 +9°C° 0.1 mm 3 mps 702 mmHg 84%
09:00 +10°C° 0.1 mm 3 mps 702 mmHg 79%
10:00 +11°C° 0.1 mm 4 mps 703 mmHg 74%
11:00 +11°C° 0.2 mm 4 mps 702 mmHg 70%
12:00 +12°C° 0.2 mm 4 mps 702 mmHg 67%
13:00 +13°C° 0.2 mm 4 mps 702 mmHg 63%
14:00 +13°C° 0.2 mm 4 mps 702 mmHg 64%
15:00 +13°C° 0.2 mm 4 mps 702 mmHg 65%
16:00 +13°C° 0.2 mm 4 mps 701 mmHg 65%
17:00 +12°C° 0.1 mm 3 mps 701 mmHg 72%
18:00 +10°C° 0.1 mm 2 mps 701 mmHg 78%
19:00 +9°C° 0.1 mm 2 mps 701 mmHg 84%
20:00 +9°C° 0 mm 2 mps 701 mmHg 87%
21:00 +8°C° 0 mm 2 mps 701 mmHg 89%
22:00 +7°C° 0 mm 2 mps 701 mmHg 92%
23:00 +7°C° 0.6 mm 2 mps 701 mmHg 93%

Day after tomorrow, 17 May, Monday

Time Temperature Precipitation Wind Pressure Humidity
00:00 +7°C° 0.6 mm 2 mps 701 mmHg 94%
01:00 +7°C° 0.6 mm 2 mps 701 mmHg 96%
02:00 +7°C° 0.3 mm 2 mps 701 mmHg 96%
03:00 +7°C° 0.3 mm 2 mps 701 mmHg 95%
04:00 +7°C° 0.3 mm 2 mps 701 mmHg 95%
05:00 +7°C° 0.1 mm 2 mps 701 mmHg 94%
06:00 +8°C° 0.1 mm 2 mps 701 mmHg 93%
07:00 +8°C° 0.1 mm 2 mps 701 mmHg 93%
08:00 +8°C° 0.3 mm 3 mps 702 mmHg 90%
09:00 +8°C° 0.3 mm 4 mps 702 mmHg 87%
10:00 +10°C° 0.3 mm 4 mps 702 mmHg 84%
11:00 +9°C° 0.3 mm 5 mps 702 mmHg 83%
12:00 +9°C° 0.3 mm 5 mps 702 mmHg 81%
13:00 +10°C° 0.3 mm 5 mps 702 mmHg 80%
14:00 +10°C° 0.4 mm 5 mps 702 mmHg 80%
15:00 +10°C° 0.4 mm 5 mps 702 mmHg 79%
16:00 +10°C° 0.4 mm 5 mps 702 mmHg 78%
17:00 +9°C° 0.2 mm 5 mps 702 mmHg 82%
18:00 +8°C° 0.2 mm 4 mps 702 mmHg 86%
19:00 +7°C° 0.2 mm 4 mps 702 mmHg 90%
20:00 +7°C° 0 mm 3 mps 702 mmHg 92%
21:00 +5°C° 0 mm 3 mps 703 mmHg 93%
22:00 +4°C° 0 mm 3 mps 703 mmHg 95%
23:00 +4°C° 0 mm 3 mps 703 mmHg 95%

18 May, Tuesday

Time Temperature Precipitation Wind Pressure Humidity
00:00 +3°C° 0 mm 3 mps 703 mmHg 95%
01:00 +4°C° 0 mm 2 mps 703 mmHg 95%
02:00 +4°C° 0 mm 2 mps 703 mmHg 95%
03:00 +5°C° 0 mm 2 mps 703 mmHg 94%
04:00 +5°C° 0 mm 2 mps 703 mmHg 94%
05:00 +5°C° 0 mm 3 mps 703 mmHg 93%
06:00 +5°C° 0 mm 3 mps 703 mmHg 92%
07:00 +7°C° 0 mm 3 mps 704 mmHg 91%
08:00 +6°C° 0.1 mm 4 mps 704 mmHg 87%
09:00 +7°C° 0.1 mm 5 mps 704 mmHg 84%
10:00 +8°C° 0.1 mm 5 mps 704 mmHg 80%
11:00 +9°C° 0.3 mm 5 mps 705 mmHg 79%
12:00 +9°C° 0.3 mm 5 mps 705 mmHg 78%
13:00 +10°C° 0.3 mm 5 mps 705 mmHg 77%
14:00 +9°C° 0.4 mm 5 mps 705 mmHg 79%
15:00 +9°C° 0.4 mm 5 mps 705 mmHg 82%
16:00 +9°C° 0.4 mm 5 mps 705 mmHg 85%
17:00 +8°C° 0.4 mm 4 mps 705 mmHg 87%
18:00 +8°C° 0.4 mm 3 mps 705 mmHg 89%
19:00 +8°C° 0.4 mm 3 mps 706 mmHg 91%
20:00 +7°C° 0.1 mm 3 mps 706 mmHg 92%
21:00 +5°C° 0.1 mm 3 mps 706 mmHg 94%
22:00 +4°C° 0.1 mm 3 mps 706 mmHg 95%
23:00 +4°C° 0 mm 3 mps 707 mmHg 95%

19 May, Wednesday

Time Temperature Precipitation Wind Pressure Humidity
00:00 +4°C° 0 mm 3 mps 707 mmHg 96%
01:00 +5°C° 0 mm 3 mps 707 mmHg 96%
02:00 +5°C° 0.1 mm 3 mps 707 mmHg 96%
03:00 +6°C° 0.1 mm 2 mps 707 mmHg 96%
04:00 +6°C° 0.1 mm 2 mps 707 mmHg 97%
05:00 +5°C° 0.6 mm 3 mps 707 mmHg 96%
06:00 +5°C° 0.6 mm 3 mps 708 mmHg 95%
07:00 +5°C° 0.6 mm 4 mps 708 mmHg 95%
08:00 +6°C° 0.3 mm 4 mps 708 mmHg 88%
09:00 +7°C° 0.3 mm 4 mps 708 mmHg 81%
10:00 +8°C° 0.3 mm 4 mps 709 mmHg 73%
11:00 +10°C° 0.1 mm 4 mps 708 mmHg 67%
12:00 +11°C° 0.1 mm 4 mps 708 mmHg 61%
13:00 +11°C° 0.1 mm 4 mps 708 mmHg 55%
14:00 +11°C° 0.2 mm 4 mps 708 mmHg 60%
15:00 +11°C° 0.2 mm 4 mps 708 mmHg 66%
16:00 +10°C° 0.2 mm 4 mps 708 mmHg 71%
17:00 +9°C° 0.4 mm 3 mps 708 mmHg 77%
18:00 +8°C° 0.4 mm 3 mps 708 mmHg 84%
19:00 +7°C° 0.4 mm 2 mps 708 mmHg 90%
20:00 +6°C° 0.2 mm 2 mps 709 mmHg 92%
21:00 +6°C° 0.2 mm 2 mps 709 mmHg 94%
22:00 +5°C° 0.2 mm 2 mps 709 mmHg 96%
23:00 +5°C° 0 mm 2 mps 709 mmHg 96%

20 May, Thursday

Time Temperature Precipitation Wind Pressure Humidity
00:00 +4°C° 0 mm 2 mps 709 mmHg 96%
01:00 +3°C° 0 mm 3 mps 710 mmHg 97%
02:00 +3°C° 0 mm 3 mps 710 mmHg 97%
03:00 +4°C° 0 mm 2 mps 710 mmHg 97%
04:00 +4°C° 0 mm 2 mps 710 mmHg 97%
05:00 +3°C° 0 mm 3 mps 710 mmHg 95%
06:00 +4°C° 0 mm 3 mps 710 mmHg 94%
07:00 +4°C° 0 mm 3 mps 710 mmHg 93%
08:00 +7°C° 0.1 mm 3 mps 710 mmHg 88%
09:00 +7°C° 0.1 mm 4 mps 710 mmHg 83%
10:00 +8°C° 0.1 mm 4 mps 710 mmHg 77%
11:00 +9°C° 0.2 mm 5 mps 710 mmHg 73%
12:00 +10°C° 0.2 mm 5 mps 710 mmHg 68%
13:00 +10°C° 0.2 mm 5 mps 709 mmHg 63%
14:00 +10°C° 0 mm 5 mps 709 mmHg 63%
15:00 +12°C° 0 mm 5 mps 709 mmHg 63%
16:00 +12°C° 0 mm 5 mps 708 mmHg 62%
17:00 +10°C° 0.1 mm 5 mps 708 mmHg 67%
18:00 +9°C° 0.1 mm 5 mps 708 mmHg 72%
19:00 +8°C° 0.1 mm 4 mps 707 mmHg 76%
20:00 +7°C° 0 mm 4 mps 707 mmHg 79%
21:00 +7°C° 0 mm 3 mps 707 mmHg 82%
22:00 +6°C° 0 mm 2 mps 706 mmHg 85%
23:00 +7°C° 0 mm 2 mps 706 mmHg 84%
Show more